APRIZESAT 2 1 28366U 04025A 26256.37190845 .00000070 00000+0 35076-4 0 9995 2 28366 98.1124 57.4108 0105147 344.6015 15.1981 14.38066881164313 SAUDICOMSAT 1 1 28369U 04025D 26256.49112048 .00000221 00000+0 61584-4 0 9991 2 28369 98.5791 269.0174 0033250 112.2405 248.2323 14.55525237176979 SAUDICOMSAT 2 1 28370U 04025E 26256.52117106 .00000185 00000+0 59402-4 0 9992 2 28370 98.6650 271.2685 0055417 353.2304 6.8134 14.50023926172902 APRIZESAT 1 1 28372U 04025G 26256.02991969 .00000115 00000+0 40529-4 0 9999 2 28372 98.6321 269.1568 0043430 247.5786 112.0805 14.51817119174651 NANOSAT-1 1 28493U 04049B 26256.65432276 .00000743 00000+0 10488-3 0 9996 2 28493 98.2406 35.5513 0004354 26.0436 334.0993 14.80306737168539 SAUDICOMSAT 7 1 31119U 07012C 26256.15022766 .00000387 00000+0 78618-4 0 9996 2 31119 98.3889 232.1328 0054311 281.2398 78.2703 14.66198888 35329 SAUDICOMSAT 6 1 31121U 07012E 26256.13682218 .00000448 00000+0 94987-4 0 9996 2 31121 98.4209 225.3380 0072744 53.6136 307.1746 14.62629342 33040 SAUDICOMSAT 5 1 31124U 07012H 26256.40952777 .00000391 00000+0 75986-4 0 9994 2 31124 98.3600 233.1294 0046618 206.6843 153.1962 14.68254448 36548 SAUDICOMSAT 3 1 31125U 07012J 26255.87688524 .00000462 00000+0 83394-4 0 9992 2 31125 98.3252 233.1266 0039957 133.3239 227.1309 14.70814448 37716 SAUDICOMSAT 4 1 31127U 07012L 26256.15196198 .00000486 00000+0 98879-4 0 9997 2 31127 98.4095 230.5640 0063021 344.8338 15.0973 14.64592397 34165 APRIZESAT 4 1 35684U 09041D 26256.45474805 .00000519 00000+0 68362-4 0 9991 2 35684 98.1348 333.5068 0043936 36.7738 323.6475 14.83988280924453 APRIZESAT 3 1 35686U 09041F 26256.36806783 .00001130 00000+0 10168-3 0 9997 2 35686 98.2179 53.8964 0062170 135.2894 225.3363 14.96448011929562 S-NET D 1 43186U 18014G 26256.51832217 .00003641 00000+0 18556-3 0 9997 2 43186 97.5254 160.7517 0009862 75.3578 284.8748 15.17368221472159 S-NET B 1 43187U 18014H 26256.53157196 .00003864 00000+0 19685-3 0 9997 2 43187 97.5261 160.7540 0010382 71.2647 288.9712 15.17336888472155 S-NET A 1 43188U 18014J 26256.51671657 .00003640 00000+0 18545-3 0 9995 2 43188 97.5271 160.9651 0010332 71.9405 288.2953 15.17376722472157 S-NET C 1 43189U 18014K 26256.53598818 .00004055 00000+0 20645-3 0 9990 2 43189 97.5289 161.0727 0011580 64.9906 295.2529 15.17327237470700 SALSAT 1 46495U 20068K 26256.02383089 .00005861 00000+0 19897-3 0 9994 2 46495 97.8880 264.5290 0009350 5.4494 354.6845 15.30897295328794 OOV-CUBE (TUBSAT-30) 1 60240U 24128F 26256.54282977 .00001228 00000+0 10524-3 0 9991 2 60240 61.9931 277.4049 0032208 154.2894 205.9807 15.03092161119396 LPNTSAT-001 (IOD-1) 1 68408U 26065A 26256.62827673 .00002100 00000+0 10348-3 0 9998 2 68408 97.3864 135.2198 0017827 58.8396 301.4584 15.18908250 25683 CHUANG XIN 26 (CX-26) 1 69972U 26158A 26256.64216650 -.00000186 00000+0 -11016-4 0 9995 2 69972 49.9852 25.3086 0005184 155.5045 204.6116 14.25129442 9327